STARLINK-6332, 57339

Orbit data source: Space-Track

STARLINK-6332, 57339 is a payload satellite owned by SpaceX/Seattle (US) in LEO that was launched on Sun, 16 Jul 2023 UTC via an FALCON 9 launch vehicle from the Air Force Eastern Test Range (AFETR). Payload-class satellites include a variety of spacecraft equipped with specific instruments for various scientific and technological missions. These include communications satellites like Starlink; space stations such as the ISS; scientific satellites like the Hubble; Earth observation satellites from companies like Planet Labs, Umbra, and HawkEye 360; GPS; miniature CubeSats for education and research; and military/defense satellites.

Loading next visibility...
Identifier
57339, 2023-099M
Orbit
LEO
Country
Flag of USUS
Related business
Manufacturer
SpaceX/Seattle
Mission
Operational Commercial Communications
Bus & Motor
STARLINK, Unknown motor
Mass
305 kg wet, ~290 kg dry
Launch date (UTC)
2023-07-16 (3 years ago)
Launch vehicle
FALCON 9
Launch site
Air Force Eastern Test Range (AFETR)
Object type
Payload
Rocket body
Debris
Shape & HBR
Box + 1 Pan, 10.1 m
Radar Cross Section
11.087 m², Large (>1 m²)

Expand to show TLE details & history
Last TLE update: 2 days ago

TLE from 2 days ago
0 STARLINK-6332
1 57339U 23099M   26171.33738772  .00000171  00000-0  15736-4 0  9992
2 57339  43.0052  32.8238 0002109 275.4149  84.6463 15.27578544161774
Epoch: 2026-06-20T08:05Z
TLE epoch observation values (Epoch: 2026-06-20T08:05:50.299Z)
Latitude
0.00006°
Longitude
2.81083°
Altitude
482.695 km
Speed
7.626 km/s
True Right ascension
02h 11m 17s
True Declination
0° 00' 00"
Sunlit
Object was in daylight at epoch
Visualization orbit readout
Latitude
Unknown
Longitude
Unknown
Altitude
Unknown
Speed
Unknown
Apparent Right ascension
Unknown
Apparent Declination
Unknown
Sunlit
N/A
Visualization observer readout
Local Sidereal Time
21:27:47
Azimuth
Unknown
Elevation
Unknown
Doppler factor
Unknown
Orbital elements
Apogee altitude
486.445 km
Perigee altitude
483.55 km
Semi-major axis
6,863.135 km
Eccentricity
0.00021
Inclination
43.0052°
RAAN
32.8238°
Arg. of periapsis
275.4149°
True anomaly
84.67036°
Mean anomaly
84.6463°
Eccentric anomaly
84.65833°
Mean motion
3.81733 °/min
Orbital period
94.31 mins
BSTAR
0.000015736
Loading maneuver chart data...
Computing Atmospheric mass density...
Loading historical data...
Loading historical data...
Loading historical data...
Loading historical data...
Loading historical data...
Loading historical data...
Loading historical data...

Documentation

Showing up to 5 results
|